Location: *
(43.6428°N, 11.5461°E)
Time: 19:18:24
(UTC+00:00)

Meteor 2-10 - Pass Details

Date: 21 October 2019
Orbit: 738 x 869 km, 81.2° (Epoch: 11 November)

Event Time Altitude Azimuth Distance (km) Brightness Sun altitude
Rises 17:12:17 0° 191° (S) 3,189 7.4 -9.9°
Reaches altitude 10° 17:14:37 10° 192° (SSW) 2,257 6.7 -10.3°
Maximum altitude 17:19:40 82° 280° (W) 752 4.0 -11.2°
Drops below altitude 10° 17:24:44 10° 9° (N) 2,256 6.3 -12.1°
Sets 17:27:04 0° 10° (N) 3,187 7.1 -12.6°
